• In Austria
  • List of Countries
  • For 7 days
  • Water Temperature
  • Satellite Maps
  • Weather Map
  • News
  • Weather Widgets
  • user-avatar
    Login

    Hourly Weather Nashua

    Today, 20 September, Thursday

    Time Temperature Precipitation Wind Pressure Humidity
    00:00 +15°C° 0 mm 2 mps 761 mmHg 88%
    01:00 +14°C° 0 mm 2 mps 761 mmHg 90%
    02:00 +14°C° 0 mm 2 mps 761 mmHg 91%
    03:00 +14°C° 0 mm 2 mps 761 mmHg 91%
    04:00 +13°C° 0 mm 2 mps 762 mmHg 92%
    05:00 +14°C° 0 mm 2 mps 762 mmHg 90%
    06:00 +14°C° 0 mm 2 mps 763 mmHg 88%
    07:00 +14°C° 0 mm 2 mps 763 mmHg 86%
    08:00 +16°C° 0 mm 2 mps 763 mmHg 80%
    09:00 +17°C° 0 mm 2 mps 764 mmHg 74%
    10:00 +18°C° 0 mm 2 mps 764 mmHg 68%
    11:00 +19°C° 0 mm 2 mps 764 mmHg 64%
    12:00 +20°C° 0 mm 2 mps 764 mmHg 60%
    13:00 +22°C° 0 mm 1 mps 764 mmHg 56%
    14:00 +21°C° 0 mm 2 mps 764 mmHg 58%
    15:00 +21°C° 0 mm 2 mps 764 mmHg 59%
    16:00 +20°C° 0 mm 2 mps 763 mmHg 60%
    17:00 +19°C° 0 mm 2 mps 764 mmHg 68%
    18:00 +17°C° 0 mm 2 mps 764 mmHg 77%
    19:00 +15°C° 0 mm 2 mps 764 mmHg 85%
    20:00 +14°C° 0 mm 1 mps 765 mmHg 87%
    21:00 +14°C° 0 mm 1 mps 765 mmHg 89%
    22:00 +13°C° 0 mm 1 mps 765 mmHg 92%
    23:00 +13°C° 0 mm 1 mps 765 mmHg 92%

    Tomorrow, 21 September, Friday

    Time Temperature Precipitation Wind Pressure Humidity
    00:00 +13°C° 0 mm 1 mps 765 mmHg 93%
    01:00 +12°C° 0 mm 0 mps 765 mmHg 94%
    02:00 +12°C° 0 mm 0 mps 765 mmHg 94%
    03:00 +12°C° 0 mm 0 mps 765 mmHg 94%
    04:00 +12°C° 0 mm 0 mps 765 mmHg 95%
    05:00 +14°C° 0 mm 1 mps 765 mmHg 92%
    06:00 +14°C° 0 mm 1 mps 765 mmHg 90%
    07:00 +15°C° 0 mm 2 mps 765 mmHg 88%
    08:00 +17°C° 0 mm 2 mps 764 mmHg 80%
    09:00 +19°C° 0 mm 3 mps 764 mmHg 71%
    10:00 +21°C° 0 mm 4 mps 764 mmHg 63%
    11:00 +22°C° 0 mm 4 mps 763 mmHg 61%
    12:00 +23°C° 0 mm 4 mps 762 mmHg 59%
    13:00 +25°C° 0 mm 5 mps 761 mmHg 57%
    14:00 +25°C° 0 mm 5 mps 761 mmHg 59%
    15:00 +25°C° 0 mm 5 mps 760 mmHg 61%
    16:00 +23°C° 0 mm 5 mps 759 mmHg 63%
    17:00 +22°C° 0 mm 5 mps 759 mmHg 67%
    18:00 +22°C° 0 mm 5 mps 758 mmHg 72%
    19:00 +21°C° 0 mm 5 mps 758 mmHg 76%
    20:00 +21°C° 0 mm 5 mps 757 mmHg 77%
    21:00 +21°C° 0 mm 5 mps 757 mmHg 79%
    22:00 +21°C° 0 mm 5 mps 757 mmHg 80%
    23:00 +22°C° 0 mm 5 mps 756 mmHg 79%

    Day after tomorrow, 22 September, Saturday

    Time Temperature Precipitation Wind Pressure Humidity
    00:00 +22°C° 0 mm 6 mps 756 mmHg 79%
    01:00 +23°C° 0 mm 6 mps 755 mmHg 79%
    02:00 +23°C° 0.1 mm 5 mps 755 mmHg 82%
    03:00 +23°C° 0.1 mm 5 mps 755 mmHg 84%
    04:00 +23°C° 0.1 mm 5 mps 756 mmHg 87%
    05:00 +22°C° 0 mm 4 mps 756 mmHg 84%
    06:00 +21°C° 0 mm 4 mps 757 mmHg 81%
    07:00 +20°C° 0 mm 4 mps 758 mmHg 78%
    08:00 +21°C° 0 mm 4 mps 758 mmHg 70%
    09:00 +21°C° 0 mm 4 mps 759 mmHg 63%
    10:00 +22°C° 0 mm 4 mps 759 mmHg 55%
    11:00 +22°C° 0 mm 3 mps 759 mmHg 52%
    12:00 +24°C° 0 mm 3 mps 760 mmHg 49%
    13:00 +24°C° 0 mm 3 mps 760 mmHg 46%
    14:00 +23°C° 0 mm 2 mps 760 mmHg 49%
    15:00 +21°C° 0 mm 2 mps 760 mmHg 52%
    16:00 +21°C° 0 mm 2 mps 760 mmHg 55%
    17:00 +19°C° 0 mm 2 mps 760 mmHg 58%
    18:00 +19°C° 0 mm 1 mps 761 mmHg 61%
    19:00 +16°C° 0 mm 1 mps 761 mmHg 64%
    20:00 +16°C° 0 mm 1 mps 761 mmHg 65%
    21:00 +16°C° 0 mm 1 mps 761 mmHg 66%
    22:00 +14°C° 0 mm 0 mps 761 mmHg 67%
    23:00 +14°C° 0 mm 0 mps 761 mmHg 67%

    23 September, Sunday

    Time Temperature Precipitation Wind Pressure Humidity
    00:00 +14°C° 0 mm 0 mps 761 mmHg 67%
    01:00 +14°C° 0 mm 0 mps 761 mmHg 68%
    02:00 +15°C° 0 mm 1 mps 761 mmHg 68%
    03:00 +14°C° 0 mm 1 mps 761 mmHg 69%
    04:00 +14°C° 0 mm 1 mps 761 mmHg 70%
    05:00 +14°C° 0 mm 1 mps 762 mmHg 70%
    06:00 +14°C° 0 mm 1 mps 762 mmHg 69%
    07:00 +14°C° 0 mm 1 mps 762 mmHg 69%
    08:00 +16°C° 0 mm 2 mps 763 mmHg 62%
    09:00 +17°C° 0 mm 2 mps 763 mmHg 55%
    10:00 +18°C° 0 mm 2 mps 763 mmHg 48%
    11:00 +20°C° 0 mm 2 mps 763 mmHg 44%
    12:00 +21°C° 0 mm 2 mps 763 mmHg 40%
    13:00 +23°C° 0 mm 2 mps 763 mmHg 37%
    14:00 +21°C° 0 mm 2 mps 763 mmHg 40%
    15:00 +21°C° 0 mm 2 mps 763 mmHg 44%
    16:00 +21°C° 0 mm 1 mps 763 mmHg 48%
    17:00 +19°C° 0 mm 1 mps 764 mmHg 53%
    18:00 +16°C° 0 mm 1 mps 765 mmHg 58%
    19:00 +15°C° 0 mm 1 mps 766 mmHg 62%
    20:00 +14°C° 0 mm 1 mps 766 mmHg 64%
    21:00 +13°C° 0 mm 1 mps 767 mmHg 66%
    22:00 +12°C° 0 mm 1 mps 767 mmHg 69%
    23:00 +12°C° 0 mm 2 mps 768 mmHg 69%

    24 September, Monday

    Time Temperature Precipitation Wind Pressure Humidity
    00:00 +12°C° 0 mm 2 mps 768 mmHg 70%
    01:00 +10°C° 0 mm 3 mps 769 mmHg 71%
    02:00 +10°C° 0 mm 3 mps 769 mmHg 71%
    03:00 +10°C° 0 mm 3 mps 770 mmHg 71%
    04:00 +9°C° 0 mm 3 mps 770 mmHg 71%
    05:00 +10°C° 0 mm 3 mps 771 mmHg 67%
    06:00 +10°C° 0 mm 3 mps 772 mmHg 64%
    07:00 +10°C° 0 mm 4 mps 772 mmHg 61%
    08:00 +11°C° 0 mm 4 mps 773 mmHg 56%
    09:00 +13°C° 0 mm 4 mps 773 mmHg 52%
    10:00 +15°C° 0 mm 4 mps 773 mmHg 48%
    11:00 +15°C° 0 mm 4 mps 773 mmHg 48%
    12:00 +17°C° 0 mm 4 mps 773 mmHg 48%
    13:00 +17°C° 0 mm 4 mps 772 mmHg 49%
    14:00 +17°C° 0 mm 4 mps 772 mmHg 52%
    15:00 +17°C° 0 mm 3 mps 772 mmHg 55%
    16:00 +16°C° 0 mm 3 mps 772 mmHg 59%
    17:00 +14°C° 0 mm 3 mps 773 mmHg 64%
    18:00 +13°C° 0 mm 2 mps 773 mmHg 70%
    19:00 +12°C° 0 mm 2 mps 774 mmHg 75%
    20:00 +10°C° 0 mm 2 mps 774 mmHg 76%
    21:00 +10°C° 0 mm 2 mps 774 mmHg 77%
    22:00 +10°C° 0 mm 1 mps 774 mmHg 77%
    23:00 +10°C° 0 mm 1 mps 774 mmHg 77%

    25 September, Tuesday

    Time Temperature Precipitation Wind Pressure Humidity
    00:00 +9°C° 0 mm 2 mps 774 mmHg 77%
    01:00 +9°C° 0 mm 2 mps 774 mmHg 77%
    02:00 +8°C° 0 mm 2 mps 774 mmHg 77%
    03:00 +8°C° 0 mm 2 mps 773 mmHg 78%
    04:00 +8°C° 0 mm 2 mps 773 mmHg 78%
    05:00 +9°C° 0 mm 2 mps 773 mmHg 76%
    06:00 +10°C° 0 mm 2 mps 773 mmHg 74%
    07:00 +12°C° 0 mm 2 mps 773 mmHg 72%
    08:00 +14°C° 0 mm 2 mps 772 mmHg 68%
    09:00 +17°C° 0 mm 3 mps 772 mmHg 65%
    10:00 +19°C° 0 mm 4 mps 771 mmHg 61%
    11:00 +19°C° 0 mm 4 mps 770 mmHg 66%
    12:00 +19°C° 0 mm 3 mps 770 mmHg 71%
    13:00 +18°C° 0 mm 3 mps 769 mmHg 75%
    14:00 +18°C° 0 mm 3 mps 768 mmHg 79%
    15:00 +18°C° 0 mm 3 mps 767 mmHg 82%
    16:00 +18°C° 0 mm 3 mps 767 mmHg 86%
    17:00 +18°C° 0.3 mm 2 mps 766 mmHg 88%
    18:00 +18°C° 0.3 mm 2 mps 766 mmHg 91%
    19:00 +18°C° 0.3 mm 2 mps 765 mmHg 94%
    20:00 +19°C° 0.3 mm 2 mps 764 mmHg 95%
    21:00 +19°C° 0.3 mm 3 mps 764 mmHg 96%
    22:00 +20°C° 0.3 mm 3 mps 763 mmHg 96%
    23:00 +20°C° 0.1 mm 2 mps 762 mmHg 97%
    Show more